Regional Weather Roundup
Issued by NWS

Home | Current Version | Previous Version | Text Only | Print | Product List | Glossary Off
Versions: 1 2 3 4 5 6 7 8 9 10 11 12 13 14 15 16 17 18 19 20 21 22 23 24 25 26 27 28 29 30 31 32 33 34 35 36 37 38 39 40 41 42 43 44 45 46 47 48 49 50

000
ASUS45 KSLC 251910
RWRUT

UTAH REGIONAL WEATHER ROUNDUP
NATIONAL WEATHER SERVICE SALT LAKE CITY UT
1200 PM MST SUN JAN 25 2015

UTZ001>011-023>025-252000-

NORTHERN UTAH

CITY           SKY/WX    TMP DP  RH WIND       PRES   REMARKS
BRIGHAM CITY   CLOUDY    40  30  68 CALM      30.49S
HILL AFB       SUNNY     44  22  42 S3        30.46S
LOGAN          CLOUDY    35  31  85 CALM      30.48S
OGDEN          SUNNY     44  27  51 CALM      30.47R
PROVO AIRPORT  MOSUNNY   39  25  56 VRB5      30.48F
SALT LAKE CITY MOSUNNY   47  28  47 CALM      30.47S
VERNAL         MOSUNNY   38  19  46 VRB3      30.41F
WENDOVER       SUNNY     39  28  65 CALM      30.49S
HEBER CITY     SUNNY     39  28  65 CALM      30.46F
WEST JORDAN    SUNNY     46  30  53 SE7       30.47S

$$

UTZ012>022-026-027-252000-

SOUTHERN/CENTRAL UTAH

CITY           SKY/WX    TMP DP  RH WIND       PRES   REMARKS
BLANDING       SUNNY     48  24  38 SW5       30.41F
BRYCE CANYON   SUNNY     44  26  49 NW6       30.42F
CEDAR CITY     SUNNY     45  28  51 VRB5      30.41F
DELTA          SUNNY     44  30  57 CALM      30.46F
MILFORD        SUNNY     47  31  53 N16       30.43F
MOAB/CYNLANDS  SUNNY     42  19  39 CALM      30.39F
PRICE          SUNNY     42  22  44 E6        30.38F
ST GEORGE      CLEAR     54  28  37 CALM      30.34F
KANAB          SUNNY     57  25  28 N6        30.36F

$$

REGIONAL REPORTS     COLORADO/ARIZONA

CITY           SKY/WX    TMP DP  RH WIND       PRES   REMARKS
CRAIG, CO      PTSUNNY   30  21  69 CALM      30.38F
GRAND JUNCTION SUNNY     42  18  37 SW3       30.39F
RIFLE          SUNNY     42  18  37 CALM      30.39F
MONTROSE       SUNNY     42  19  39 NW7       30.38F
CORTEZ         SUNNY     45  22  40 VRB6      30.33F
PAGE, AZ       NOT AVBL
GRAND CANYON   SUNNY     51  22  31 NE16G23   30.36S
KINGMAN        SUNNY     61  23  23 N10       30.25F
FLAGSTAFF      SUNNY     51  21  30 E16       30.34F

$$

REGIONAL REPORTS    NEVADA/IDAHO/WYOMING

CITY           SKY/WX    TMP DP  RH WIND       PRES   REMARKS
LAS VEGAS, NV  SUNNY     64  30  27 CALM      30.24F
ELY            SUNNY     45  32  60 VRB3      30.45F
ELKO           SUNNY     42  30  62 E3        30.48R
POCATELLO, ID  PTSUNNY   35  31  85 NE6       30.46S WCI  30
BURLEY         MOSUNNY   43  31  62 N5        30.42F
EVANSTON, WY   SUNNY     40  31  70 SW9       30.43F WCI  34
ROCK SPRINGS   PTSUNNY   41  30  65 W23G33    30.32F
KEMMERER       PTSUNNY   37  32  81 W17G23    30.41F WCI  28

$$



USA.gov is the U.S. government's official web portal to all federal, state and local government web resources and services.